Preview of NWS' New Version of Forecast
This preview is not operational and should not be used for support decisions.

Regional Weather Roundup (RWR)

Issued by National Weather Service (NWS)

                            
000
ASUS46 KPQR 240410
RWROR 

OREGON REGIONAL WEATHER ROUNDUP
NATIONAL WEATHER SERVICE PORTLAND OR
900 PM PDT SUN JUN 23 2019

NOTE: "FAIR" INDICATES FEW OR NO CLOUDS BELOW 12,000 FEET WITH
NO SIGNIFICANT WEATHER AND/OR OBSTRUCTIONS TO VISIBILITY.

ORZ001>013-240500-
NORTHWEST OREGON

  
CITY           SKY/WX    TMP DP  RH WIND       PRES   REMARKS
ASTORIA        CLOUDY    56  50  80 W6        30.17F                  
TILLAMOOK      CLEAR     55  48  76 W7        30.19F                  
NEWPORT        CLOUDY    54  50  87 N9        30.19F                  
PORTLAND       PTCLDY    62  47  57 N8        30.14S                  
VANCOUVER WA   CLEAR     60  46  59 NW9       30.13F                  
SCAPPOOSE      CLEAR     59  46  62 NW3       30.14S                  
HILLSBORO      CLEAR     59  46  62 N7        30.13F                  
AURORA         PTCLDY    63  47  55 NW10      30.13S                  
MCMINNVILLE    MOCLDY    61  48  62 N8        30.12S                  
SALEM          CLEAR     62  48  60 NW8       30.11S                  
CORVALLIS      CLEAR     62  50  64 NW10      30.12F                  
EUGENE         PTCLDY    65  48  54 N10       30.11S                  
$$

ORZ021-028-240500-
SOUTHWEST OREGON

  
CITY           SKY/WX    TMP DP  RH WIND       PRES   REMARKS
NORTH BEND     PTCLDY    55  52  89 N14       30.17S                  
BROOKINGS      CLEAR     67  50  54 N5        30.01S                  
ROSEBURG       CLEAR     72  44  36 NW6       30.07S                  
SEXTON SUMMIT  CLEAR     59  43  55 N8        30.13F                  
GRANTS PASS    FAIR      75  45  33 N6        30.07S                  
MEDFORD        CLEAR     72  41  32 N7        30.03F                  
$$

ORZ014>016-041-240500-
COLUMBIA GORGE

  
CITY           SKY/WX    TMP DP  RH WIND       PRES   REMARKS
TROUTDALE      CLEAR     62  47  57 NW7       30.13S                  
HOOD RIVER     PTCLDY    61  45  55 NW7       30.08S                  
THE DALLES     PTCLDY    65  43  44 W12       30.04F                  
$$

ORZ029>031-041-044-049-050-061>064-502-503-505>511-240500-
EASTERN OREGON

  
CITY           SKY/WX    TMP DP  RH WIND       PRES   REMARKS
MADRAS         PTCLDY    55  41  58 NW13G21   30.10R                  
REDMOND        MOCLDY    62  37  39 NW17      30.07S                  
BEND           MOCLDY    61  39  44 N7G14     30.07S                  
PRINEVILLE     PTCLDY    59  41  51 N7        30.08S                  
KLAMATH FALLS  CLEAR     65  38  36 NW15      30.10R                  
LAKEVIEW       CLEAR     61  38  42 W9        30.09R                  
HERMISTON      PTCLDY    66  45  46 SW14G21   29.97R                  
PENDLETON      MOCLDY    64  42  44 W21G29    29.98R                  
JOHN DAY       CLEAR     61  36  39 NW3       30.05R                  
MEACHAM        PTCLDY    55  38  52 CALM      30.05F                  
LA GRANDE      PTCLDY    58  36  43 NW7       30.02S                  
BAKER CITY     CLEAR     57  40  52 NW5       30.03R                  
BURNS          CLEAR     60  35  39 NW8       30.04S                  
ROME             N/A     68  28  22 N9        30.01R                  
ONTARIO        CLEAR     67  40  37 N8        29.96R                  
$$